Weather History for Krakow, Poland

Change the Weather History Date:

Wednesday, June 19, 2013

  Actual Average Record
Temperature  
Mean Temperature 72 °F -  
Max Temperature 80 °F 72 °F - ()
Min Temperature 64 °F 53 °F - ()
Cooling Degree Days 7    
Growing Degree Days 22 (Base 50)    
Moisture  
Dew Point 65 °F    
Average Humidity 78    
Maximum Humidity 94    
Minimum Humidity 53    
Precipitation  
Precipitation 0.00 in 0.12 in - ()
Sea Level Pressure  
Sea Level Pressure 30.08 in    
Wind  
Wind Speed 5 mph ()    
Max Wind Speed 13 mph    
Max Gust Speed -    
Visibility 7.6 miles    
Events Fog    
T = Trace of Precipitation, MM = Missing Value Source: Averaged Metar Reports

Daily Weather History Graph

Daily Weather History Graph

Search for Another Location

Airport:

Trip Planner

Search our weather history database for the weather conditions in past years. The results will help you decide how hot, cold, wet, or windy it might be!

Date:

Astronomy

Jun. 19, 2013 Rise Set
Actual Time 4:30 AM CEST 8:53 PM CEST
Civil Twilight 3:45 AM CEST 9:38 PM CEST
Nautical Twilight 2:39 AM CEST 10:44 PM CEST
Astronomical Twilight 1:14 AM CEST 12:09 AM CEST
Moon 4:06 PM CEST (6/19) 1:26 AM CEST (6/19)
Length of Visible Light 17h 52m
Length of Day
16h 22m
Waxing Gibbous, 78% of the Moon is Illuminated
Jun 19
Waxing Gibbous
Jun 23
Full
Jun 30
Last Quarter
Jul 8
New
Jul 16
First Quarter

Hourly Weather History & Observations

Time (CEST) Temp. Heat Index Dew Point Humidity Pressure Visibility Wind Dir Wind Speed Gust Speed Precip Events Conditions
12:00 AM 69.8 °F - 66.2 °F 88% 30.06 in - NE 5.8 mph - N/A   Clear
12:30 AM 69.8 °F - 66.2 °F 88% 30.06 in 6.2 mi NE 4.6 mph - N/A   Scattered Clouds
1:00 AM 69.8 °F - 66.2 °F 88% 30.06 in 6.2 mi NE 3.5 mph - N/A   Scattered Clouds
1:30 AM 69.8 °F - 66.2 °F 88% 30.06 in 6.2 mi Variable 1.2 mph - N/A   Scattered Clouds
2:00 AM 70 °F - 66 °F 83% 30.06 in 12 mi North 2.2 mph - -   Mostly Cloudy
2:00 AM 69.8 °F - 66.2 °F 88% 30.06 in 6.2 mi Calm Calm - N/A   Scattered Clouds
2:30 AM 68.0 °F - 64.4 °F 88% 30.06 in 6.2 mi Calm Calm - N/A   Scattered Clouds
3:00 AM 68.0 °F - 64.4 °F 88% 30.06 in 6.2 mi Calm Calm - N/A   Partly Cloudy
3:30 AM 66.2 °F - 64.4 °F 94% 30.06 in - Calm Calm - N/A   Clear
4:00 AM 64.4 °F - 62.6 °F 94% 30.06 in - NE 3.5 mph - N/A   Clear
4:30 AM 66.2 °F - 64.4 °F 94% 30.06 in 6.2 mi Calm Calm - N/A Fog Shallow Fog
5:00 AM 65 °F - 64 °F 93% 30.08 in 6 mi NE 2.2 mph - - Fog Patches of Fog
5:00 AM 66.2 °F - 64.4 °F 94% 30.09 in 6.2 mi Calm Calm - N/A Fog Shallow Fog
5:30 AM 64.4 °F - 62.6 °F 94% 30.09 in 5.0 mi Calm Calm - N/A   Unknown
6:00 AM 66.2 °F - 64.4 °F 94% 30.09 in 5.0 mi Calm Calm - N/A   Unknown
6:30 AM 69.8 °F - 66.2 °F 88% 30.09 in - Calm Calm - N/A   Clear
7:00 AM 69.8 °F - 66.2 °F 88% 30.09 in - ENE 4.6 mph - N/A   Clear
7:30 AM 69.8 °F - 66.2 °F 88% 30.09 in - ENE 5.8 mph - N/A   Clear
8:00 AM 72 °F - 65 °F 74% 30.09 in 6 mi NE 6.7 mph - -   Clear
8:00 AM 71.6 °F - 66.2 °F 83% 30.09 in - ENE 5.8 mph - N/A   Clear
8:30 AM 71.6 °F - 66.2 °F 83% 30.09 in - East 6.9 mph - N/A   Clear
9:00 AM 73.4 °F - 68.0 °F 83% 30.12 in 6.2 mi ENE 6.9 mph - N/A   Scattered Clouds
9:30 AM 73.4 °F - 66.2 °F 78% 30.12 in 6.2 mi ENE 10.4 mph - N/A   Scattered Clouds
10:00 AM 71.6 °F - 68.0 °F 88% 30.12 in 6.2 mi NE 11.5 mph - N/A   Scattered Clouds
10:30 AM 71.6 °F - 66.2 °F 83% 30.12 in 6.2 mi NE 11.5 mph - N/A   Scattered Clouds
11:00 AM 72 °F - 67 °F 79% 30.12 in 6 mi NE 11.2 mph - -   Partly Cloudy
11:00 AM 71.6 °F - 66.2 °F 83% 30.12 in 6.2 mi ENE 10.4 mph - N/A   Scattered Clouds
11:30 AM 71.6 °F - 66.2 °F 83% 30.12 in 6.2 mi NE 11.5 mph - N/A   Mostly Cloudy
12:00 PM 73.4 °F - 68.0 °F 83% 30.12 in 6.2 mi NE 10.4 mph - N/A   Mostly Cloudy
12:30 PM 75.2 °F - 66.2 °F 73% 30.12 in 6.2 mi NE 10.4 mph - N/A   Scattered Clouds
1:00 PM 77.0 °F - 68.0 °F 74% 30.12 in 6.2 mi ENE 10.4 mph - N/A   Scattered Clouds
1:30 PM 77.0 °F - 68.0 °F 74% 30.12 in 6.2 mi Variable 10.4 mph - N/A   Scattered Clouds
2:00 PM 78 °F - 67 °F 61% 30.09 in 9 mi ENE 11.2 mph - -   Scattered Clouds
2:00 PM 77.0 °F - 66.2 °F 69% 30.09 in 6.2 mi East 10.4 mph - N/A   Partly Cloudy
2:30 PM 78.8 °F - 69.8 °F 74% 30.09 in 6.2 mi ENE 11.5 mph - N/A   Partly Cloudy
3:00 PM 78.8 °F - 66.2 °F 65% 30.09 in 6.2 mi ENE 11.5 mph - N/A   Partly Cloudy
3:30 PM 78.8 °F - 66.2 °F 65% 30.09 in 6.2 mi ENE 11.5 mph - N/A   Partly Cloudy
4:00 PM 80.6 °F 82.7 °F 66.2 °F 61% 30.09 in - ENE 12.7 mph - N/A   Clear
4:30 PM 80.6 °F 83.2 °F 68.0 °F 65% 30.06 in - East 9.2 mph - N/A   Clear
5:00 PM 80 °F - 66 °F 53% 30.05 in 19 mi ENE 11.2 mph - -  
5:00 PM 80.6 °F 82.7 °F 66.2 °F 61% 30.06 in - East 10.4 mph - N/A   Clear
5:30 PM 80.6 °F 82.3 °F 64.4 °F 58% 30.06 in - East 10.4 mph - N/A   Clear
6:00 PM 80.6 °F 82.7 °F 66.2 °F 61% 30.06 in - East 9.2 mph - N/A   Clear
6:30 PM 78.8 °F - 64.4 °F 61% 30.06 in - ENE 9.2 mph - N/A   Clear
7:00 PM 78.8 °F - 64.4 °F 61% 30.06 in - ENE 9.2 mph - N/A   Clear
7:30 PM 77.0 °F - 64.4 °F 65% 30.06 in - East 10.4 mph - N/A   Clear
8:00 PM 76 °F - 63 °F 56% 30.05 in 19 mi NE 11.2 mph - -  
8:00 PM 75.2 °F - 64.4 °F 69% 30.06 in - ENE 10.4 mph - N/A   Clear
8:30 PM 73.4 °F - 64.4 °F 73% 30.06 in - ENE 8.1 mph - N/A   Clear
9:00 PM 71.6 °F - 62.6 °F 73% 30.09 in - ENE 9.2 mph - N/A   Clear
9:30 PM 71.6 °F - 62.6 °F 73% 30.09 in - ENE 9.2 mph - N/A   Clear
10:00 PM 69.8 °F - 62.6 °F 78% 30.09 in - ENE 9.2 mph - N/A   Clear
10:30 PM 69.8 °F - 62.6 °F 78% 30.09 in - NE 6.9 mph - N/A   Clear
11:00 PM 69 °F - 62 °F 71% 30.08 in 19 mi NNE 4.5 mph - -  
11:00 PM 68.0 °F - 62.6 °F 83% 30.09 in - NE 4.6 mph - N/A   Clear
11:30 PM 68.0 °F - 62.6 °F 83% 30.09 in - NNE 4.6 mph - N/A   Clear